Location: Shell Point
(30.0571°N, 84.2896°W)
Time: 12:52:24
(UTC-04:00)

Meteor 2-19 Rocket - Visible Passes

Search period start: 25 May 2016 00:00
Search period end: 04 June 2016 00:00
Orbit: 937 x 958 km, 82.5° (Epoch: 25 May)

Date Brightness Start Highest point End Pass type
(mag) Time Alt. Az. Time Alt. Az. Time Alt. Az.
26 May 7.1 05:32:00 10° ESE 05:35:29 16° E 05:38:59 10° NE visible
27 May 6.6 05:47:15 10° SE 05:52:13 27° E 05:57:13 10° NNE visible
28 May 5.6 06:03:18 10° SSE 06:09:02 46° E 06:14:49 10° NNE visible
30 May 7.2 04:56:14 10° ESE 04:58:49 13° E 05:01:25 10° ENE visible
31 May 6.7 05:10:57 10° SE 05:15:32 23° E 05:20:07 10° NE visible
01 Jun 5.9 05:26:46 10° SSE 05:32:19 38° E 05:37:53 10° NNE visible
02 Jun 4.9 05:43:12 10° S 05:49:11 65° E 05:55:14 10° NNE visible
03 Jun 7.3 04:21:24 10° E 04:22:11 10° E 04:22:58 10° ENE visible
03 Jun 4.5 06:00:04 10° S 06:06:08 77° W 06:12:17 10° N visible
